This is the latest recevied weather packets stored in our database for station/object EA5GK-10. If no packets are shown the sender has not sent any weather packets the latest 10 day(s).
| Time | Temp. | Humidity | Pressure | Rain* | Wind** | Luminosity | Snow |
|---|---|---|---|---|---|---|---|
| 1787735385 | 27.78° C | 45% | 1013.9 hPa | - | - | - | - |
| 1787734485 | 27.22° C | 46% | 1014.3 hPa | - | - | - | - |
| 1787733584 | 26.67° C | 50% | 1012.7 hPa | - | - | - | - |
| 1787732684 | 26.11° C | 48% | 1014.2 hPa | - | - | - | - |
| 1787731784 | 25.56° C | 50% | 1013.5 hPa | - | - | - | - |
| 1787730893 | 26.67° C | 49% | 1014.2 hPa | - | - | - | - |
| 1787729993 | 26.67° C | 46% | 1013.1 hPa | - | - | - | - |
| 1787729093 | 25.56° C | 49% | 1014.4 hPa | - | - | - | - |
| 1787728193 | 25.56° C | 49% | 1013.6 hPa | - | - | - | - |
| 1787727293 | 25.56° C | 49% | 1013.4 hPa | - | - | - | - |
| 1787726393 | 25° C | 48% | 1013.1 hPa | - | - | - | - |
| 1787725493 | 25° C | 48% | 1014.7 hPa | - | - | - | - |
| 1787724593 | 25° C | 47% | 1013.7 hPa | - | - | - | - |
| 1787723693 | 25° C | 48% | 1013.1 hPa | - | - | - | - |
| 1787722792 | 25° C | 48% | 1012.9 hPa | - | - | - | - |
| 1787721892 | 25° C | 47% | 1012.4 hPa | - | - | - | - |
| 1787720992 | 25° C | 47% | 1011 hPa | - | - | - | - |
| 1787720092 | 25.56° C | 47% | 1013.9 hPa | - | - | - | - |
| 1787719192 | 25.56° C | 46% | 1013.5 hPa | - | - | - | - |
| 1787718292 | 25.56° C | 46% | 1013.2 hPa | - | - | - | - |
| 1787717392 | 25.56° C | 46% | 1012.3 hPa | - | - | - | - |
| 1787716491 | 25.56° C | 46% | 1013 hPa | - | - | - | - |
| 1787715591 | 26.11° C | 46% | 1012.7 hPa | - | - | - | - |
| 1787714691 | 26.11° C | 46% | 1013.2 hPa | - | - | - | - |
| 1787713791 | 26.11° C | 47% | 1013.3 hPa | - | - | - | - |
* Rain since midnight (hover to see other rain measurements)
** Current wind speed in m/s (hover to see current wind gust speed)